Location: Miniera di Monteponi
(39.3033°N, 8.5053°E)
Time: 00:59:11
(UTC+00:00)

Daily predictions for brighter satellites

Satellite Brightness Start Highest point End
(mag) Time Altitude Azimuth Time Altitude Azimuth Time Altitude Azimuth
CZ-4C R/B 4.4 00:03:11 10° NNW 00:09:38 33° NE 00:16:55 10° ESE
ATLAS 5 CENTAUR R/B 3.6 00:08:50 10° NW 00:12:08 32° WNW 00:12:08 32° WNW
ASTEX 1 4.4 00:16:22 43° NE 00:16:22 43° NE 00:20:03 10° N
Cosmos 2219 4.0 00:22:32 45° NW 00:22:32 45° NW 00:27:41 10° N
Cosmos 1241 Rocket 4.5 00:24:31 81° ENE 00:24:31 81° ENE 00:30:46 10° NNE
ADEOS II 4.1 00:23:24 10° NE 00:26:43 17° E 00:26:56 17° E
Timation 2 Rocket 4.1 00:28:58 60° NW 00:28:58 60° NW 00:34:42 10° NNE
Cosmos 2184 Rocket 4.2 00:30:13 59° E 00:30:17 59° E 00:36:27 10° NNE
Cosmos 2082 3.9 00:39:31 66° NNW 00:39:31 66° NNW 00:44:42 10° NNE
NPP 4.4 00:39:20 10° NNE 00:44:14 42° E 00:44:14 42° E
Cosmos 2344 3.7 00:45:08 50° SE 00:45:59 52° ESE 00:53:12 10° NE
Cosmos 2251 Rocket 3.9 00:48:29 58° NNW 00:48:29 58° NNW 00:52:59 10° NNE
Cosmos 2074 Rocket 3.8 00:48:39 86° ESE 00:48:43 86° E 00:54:57 10° N
CZ-2D R/B 2.4 00:45:18 10° NNE 00:50:22 60° E 00:50:22 60° E
SL-16 R/B 2.9 00:51:24 46° ESE 00:52:51 58° ENE 00:58:54 10° N
Cosmos 614 Rocket 4.4 00:59:48 54° NW 00:59:48 54° NW 01:04:19 10° N
Cosmos 2297 Rocket 4.0 00:58:58 19° WNW 00:59:59 20° NW 01:04:01 10° N
Meteor 2-12 Rocket 4.3 01:00:29 81° W 01:00:35 81° W 01:06:46 10° N
Lacrosse 5 3.8 01:01:08 19° WNW 01:02:49 22° NNW 01:06:45 10° NNE
AQUA 4.5 01:00:17 10° NNE 01:04:30 49° E 01:04:30 49° E
Cosmos 2237 Rocket 4.3 01:04:28 10° NW 01:05:49 15° WNW 01:05:49 15° WNW
IDEFIX/ARIANE 42P 4.3 01:04:41 10° NE 01:08:42 23° E 01:10:02 20° ESE
Cosmos 2227 Rocket 3.9 01:10:42 20° WNW 01:11:37 21° NW 01:15:49 10° N
Okean 2 4.4 01:09:04 10° N 01:12:31 43° NE 01:12:31 43° NE
Cosmos 1975 3.9 01:15:16 44° NNE 01:15:16 44° NNE 01:18:07 10° N
UNK 3.9 01:20:27 71° N 01:20:27 71° N 01:24:39 10° NNW
Cosmos 1023 Rocket 4.4 01:25:01 78° WNW 01:25:01 78° WNW 01:30:17 10° NNE
Meteor 2-9 Rocket 4.1 01:28:18 63° WNW 01:28:18 63° WNW 01:33:34 10° N
Cosmos 2263 Rocket 2.0 01:28:17 73° WSW 01:28:43 78° WNW 01:34:27 10° NNE
Cosmos 1610 Rocket 4.5 01:31:38 60° SW 01:32:33 68° W 01:38:54 10° N
Cosmos 676 Rocket 4.3 01:32:57 52° SE 01:33:42 57° ESE 01:38:56 10° NNE
Cosmos 1674 Rocket 3.9 01:29:19 10° N 01:33:01 60° NNW 01:33:01 60° NNW
ADEOS Rocket 2.6 01:34:05 65° S 01:34:57 85° WSW 01:40:28 10° NNW
Cosmos 407 Rocket 3.6 01:35:09 59° WNW 01:35:18 59° WNW 01:40:31 10° N
Meteor 1-21 4.2 01:29:49 10° N 01:35:38 88° W 01:36:46 60° S
SL-16 R/B 3.3 01:31:03 10° NW 01:34:32 29° WNW 01:34:32 29° WNW
Resurs 1-4 Rocket 2.4 01:31:00 10° N 01:36:06 49° WNW 01:36:18 49° WNW
Meteor 1-28 Rocket 4.3 01:36:55 38° E 01:37:08 39° ENE 01:40:37 10° N
Cosmos 2227 4.0 01:36:36 70° SW 01:37:13 80° WNW 01:42:52 10° NNE
IRS-1D 3.8 01:34:45 10° NNE 01:39:41 58° ESE 01:40:36 50° SE
ATLAS CENTAUR R/B 2.0 01:43:34 46° NNW 01:43:34 46° NNW 01:46:44 10° NNE
Cosmos 2341 Rocket 3.9 01:46:23 47° S 01:48:22 84° E 01:54:36 10° N
Nadezhda 3 Rocket 4.1 01:43:08 10° NNW 01:49:23 59° W 01:50:37 50° SW
Cosmos 1400 Rocket 4.2 01:49:16 28° ESE 01:50:00 30° E 01:53:28 10° NNE
Cosmos 1378 Rocket 4.0 01:47:31 10° NNW 01:51:01 47° NW 01:51:01 47° NW
Milstar 3 3.9 01:52:32 26° SSE 01:52:32 26° SSE 01:57:49 10° ESE
Cosmos 1238 Rocket 4.1 01:54:46 26° NW 01:54:46 26° NW 01:56:50 10° N
Cosmos 1975 Rocket 4.2 01:51:06 10° N 01:55:14 40° ENE 01:57:31 22° SE
Landsat 4 3.8 01:53:33 10° NNE 01:57:03 71° ENE 01:57:03 71° ENE
Cosmos 962 Rocket 4.5 01:56:47 47° SSW 01:58:40 71° W 02:05:02 10° N
CZ-4C R/B 3.0 01:51:14 10° NW 01:58:47 69° WSW 02:07:18 10° SSE
Meteor 1-29 3.6 01:57:48 10° N 02:00:19 47° N 02:00:19 47° N
Cosmos 1908 Rocket 3.9 02:03:59 48° WNW 02:03:59 48° WNW 02:08:04 10° N
KORONAS-FOTON 4.2 02:00:35 10° N 02:04:28 60° E 02:05:23 45° SE
ADEOS II 2.3 02:01:35 10° N 02:06:44 56° WNW 02:07:52 46° WSW
Cosmos 1626 3.6 02:04:34 10° NNE 02:07:59 34° ENE 02:10:03 19° SE
Cosmos 1805 3.7 02:10:14 44° SE 02:11:06 57° E 02:14:56 10° NNE
Cosmos 1943 3.1 02:05:37 10° NNW 02:11:20 77° WSW 02:14:59 23° SSE
Helios 1B rocket 3.7 02:07:54 10° N 02:11:16 28° WNW 02:11:16 28° WNW
Cosmos 1733 3.7 02:15:06 39° SSE 02:16:11 54° E 02:19:55 10° NNE
Cosmos 1707 3.9 02:14:14 10° NNW 02:16:48 29° WNW 02:16:48 29° WNW
Cosmos 44 3.6 02:13:33 10° NW 02:18:27 45° WSW 02:18:36 45° WSW
CBERS-1 3.9 02:14:10 10° N 02:19:18 76° WNW 02:21:08 40° SSW
Cosmos 1340 2.5 02:15:38 10° N 02:19:23 86° W 02:19:56 63° S
CZ-4C R/B 4.0 02:17:33 19° SSE 02:20:26 60° ENE 02:24:43 10° N
CZ-4B R/B 4.5 02:17:55 10° NNE 02:22:24 39° E 02:25:50 16° SSE
MSX 3.8 02:22:23 10° NNE 02:28:09 90° WNW 02:31:24 27° SSW
BREEZE-M DEB (TANK) 3.6 02:25:08 10° WNW 02:28:17 40° NNE 02:31:09 10° E
CZ-2D R/B 3.9 02:26:40 10° NNW 02:30:12 18° WNW 02:31:41 16° W
COSMOS 2441 4.3 02:25:37 10° NNE 02:30:27 82° ESE 02:32:59 28° S
Cosmos 468 Rocket 4.2 02:27:59 10° NNW 02:33:17 71° ENE 02:38:29 10° SSE
Cosmos 1674 2.8 02:30:42 10° NNW 02:34:27 54° W 02:35:05 47° SW
SL-16 R/B 3.8 02:36:30 21° W 02:36:48 21° W 02:41:19 10° NW
IRS-1C 4.1 02:32:54 10° NNE 02:38:16 89° ESE 02:41:39 23° SSW
Cosmos 1850 Rocket 4.0 02:35:59 27° SSW 02:38:57 84° ESE 02:44:14 10° NNE
Meteor 2-20 4.4 02:33:03 10° NNW 02:39:10 68° W 02:44:07 16° S
SL-14 R/B 4.0 02:35:52 10° N 02:39:42 54° E 02:43:35 10° SSE
Cosmos 1346 Rocket 4.1 02:36:09 10° N 02:39:51 40° ENE 02:43:31 10° SSE
Cosmos 1844 Rocket 2.7 02:36:56 26° SSW 02:40:11 85° ESE 02:45:54 10° NNE
Meteor 2-20 Rocket 4.4 02:39:24 10° N 02:45:35 84° W 02:51:44 10° S
Cosmos 1782 Rocket 4.5 02:46:09 27° WSW 02:47:09 30° WNW 02:51:03 10° NNW
Cosmos 1766 3.1 02:45:28 31° SSW 02:47:15 78° W 02:51:11 10° N
Cosmos 1470 4.5 02:43:49 10° SSE 02:47:17 31° E 02:50:46 10° NNE
IDEFIX/ARIANE 42P 3.1 02:43:34 10° N 02:48:25 41° WNW 02:50:50 25° WSW
ASTRO E2 4.4 02:49:31 18° S 02:49:31 18° S 02:51:24 10° SSE
Meteor 1-15 Rocket 4.3 02:47:43 20° SSW 02:51:56 75° W 02:57:49 10° N
ARIANE 5 R/B 2.5 02:49:01 10° N 02:54:14 81° WNW 02:58:13 18° SSW
SL-24 R/B - RUBIN 2 4.0 02:50:40 10° NW 02:55:08 39° WSW 02:59:14 10° S
CZ-2C R/B 2.9 02:51:08 10° NNE 02:55:38 53° E 03:00:12 10° S
Spot 1 3.9 02:52:12 14° S 02:55:40 65° WSW 02:59:43 10° NNW
Cosmos 2366 rocket 4.5 02:52:39 23° SW 02:56:19 45° WNW 03:02:23 10° N
Okean 2 Rocket 3.1 02:54:47 19° SSW 02:57:58 79° W 03:02:31 10° N
USA 290 2.6 02:56:36 10° NNW 02:59:40 41° WSW 03:00:52 28° SSW
Cosmos 1726 2.8 02:59:35 10° S 03:03:07 52° E 03:06:43 10° NNE
Meteor 1-24 Rocket 4.3 02:58:12 10° N 03:04:04 64° E 03:09:41 10° SSE
ALOS 3.4 03:01:44 10° NNE 03:06:11 43° E 03:10:37 10° S
Cosmos 841 Rocket 4.0 03:00:58 10° NNW 03:06:12 63° ENE 03:11:24 10° SSE
Cosmos 1536 Rocket 3.6 03:07:28 10° N 03:11:53 81° E 03:16:17 10° S
Sich 1 Rocket 4.3 03:09:30 20° SW 03:11:58 37° WNW 03:16:05 10° N
USA 215 3.7 03:05:43 10° NE 03:12:06 54° SE 03:18:16 11° SSW
Cosmos 2263 Rocket 4.3 03:11:15 10° WNW 03:13:37 12° NW 03:15:59 10° NNW
PAYLOAD A 4.1 03:08:40 10° NNE 03:14:06 90° W 03:19:21 10° SSW
Spot 4 Rocket 4.0 03:11:09 10° NNE 03:16:20 86° WNW 03:21:30 10° SSW
Cosmos 2151 Rocket 3.7 03:14:20 14° SSW 03:18:03 59° W 03:22:26 10° N
Cosmos 1300 Rocket 4.5 03:17:07 18° SW 03:19:38 31° WNW 03:23:32 10° NNW
Cosmos 1763 Rocket 3.9 03:16:19 10° NNW 03:21:17 41° WSW 03:26:10 10° S
Meteor 2-5 Rocket 3.8 03:24:03 10° NNW 03:29:52 62° W 03:35:32 10° S
Cosmos 1934 Rocket 4.1 03:26:39 10° S 03:32:46 86° E 03:39:04 10° N
Cosmos 1867 4.0 03:31:04 12° SW 03:35:51 49° NW 03:41:11 10° NNE
Cosmos 1570 Rocket 4.2 03:34:39 10° NNW 03:40:01 80° ENE 03:45:22 10° SSE
Cosmos 1315 Rocket 3.5 03:36:34 10° SW 03:40:23 38° WNW 03:44:11 10° N
CZ-2D R/B 4.4 03:36:52 10° N 03:40:25 30° WNW 03:44:01 10° SW
Cosmos 1626 4.1 03:41:13 10° WNW 03:42:48 12° W 03:44:23 10° WSW
MOS 1 Rocket 3.6 03:37:58 10° SSE 03:43:07 88° WSW 03:48:32 10° NNW
PSLV R/B 3.6 03:39:45 10° NNE 03:44:03 85° ESE 03:48:16 10° SSW
Cosmos 540 Rocket 3.7 03:39:41 10° NNW 03:44:38 46° WSW 03:49:32 10° S
METEOR-M 4.3 03:40:41 10° NNE 03:46:03 78° ESE 03:51:23 10° S
SL-08 R/B 4.2 03:42:39 10° SSW 03:47:00 31° W 03:51:22 10° NW
Aureole 1 Rocket 4.3 03:41:35 10° SW 03:47:04 54° WNW 03:54:12 10° NNE
Okean 1 Rocket 3.3 03:45:54 10° SSW 03:50:13 55° W 03:54:37 10° N
CZ-2C R/B 3.1 03:48:03 10° N 03:51:37 44° WNW 03:55:15 10° SW
X-37B 1.1 03:50:48 10° SW 03:53:54 50° SSE 03:57:01 10° ENE
